Weather History for Rota, MP

Change the Weather History Date:

Friday, December 7, 2012

  Actual Average Record
Temperature  
Mean Temperature 78 °F -  
Max Temperature 84 °F 83 °F 86 °F (1996)
Min Temperature 73 °F 75 °F 73 °F (2012)
Cooling Degree Days 14    
Growing Degree Days 28 (Base 50)    
Moisture  
Dew Point 75 °F    
Average Humidity 82    
Maximum Humidity 94    
Minimum Humidity 74    
Precipitation  
Precipitation 0.00 in - - ()
Sea Level Pressure  
Sea Level Pressure 29.94 in    
Wind  
Wind Speed 9 mph (ENE)    
Max Wind Speed 17 mph    
Max Gust Speed -    
Visibility 7 miles    
Events      
Averages and records for this station are not official NWS values.
T = Trace of Precipitation, MM = Missing Value Source: NWS Daily Summary

Daily Weather History Graph

Daily Weather History Graph

Search for Another Location

Airport:

Trip Planner

Search our weather history database for the weather conditions in past years. The results will help you decide how hot, cold, wet, or windy it might be!

Date:

Astronomy

Dec. 07, 2012 Rise Set
Actual Time 6:30 AM ChST 5:50 PM ChST
Civil Twilight 6:07 AM ChST 6:13 PM ChST
Nautical Twilight 5:41 AM ChST 6:39 PM ChST
Astronomical Twilight 5:14 AM ChST 7:06 PM ChST
Moon 12:09 AM ChST (12/7) 12:32 PM ChST (12/7)
Length of Visible Light 12h 05m
Length of Day
11h 19m
Last Quarter, 45% of the Moon is Illuminated
Dec 7
Last Quarter
Dec 13
New
Dec 20
First Quarter
Dec 28
Full
Jan 5
Last Quarter

Hourly Weather History & Observations

Time (ChST) Temp. Heat Index Dew Point Humidity Pressure Visibility Wind Dir Wind Speed Gust Speed Precip Events Conditions
12:05 AM 78.8 °F - 75.2 °F 89% 29.96 in 7.0 mi East 11.5 mph - N/A   Scattered Clouds
12:50 AM 78.8 °F - 73.4 °F 83% 29.94 in 7.0 mi East 11.5 mph - N/A   Partly Cloudy
1:50 AM 78.8 °F - 73.4 °F 83% 29.94 in 7.0 mi East 6.9 mph - N/A   Scattered Clouds
2:50 AM 77.0 °F - 73.4 °F 89% 29.92 in 7.0 mi East 5.8 mph - N/A   Partly Cloudy
3:50 AM 77.0 °F - 73.4 °F 89% 29.91 in 7.0 mi East 3.5 mph - N/A   Partly Cloudy
5:51 AM 73.4 °F - 71.6 °F 94% 29.93 in 7.0 mi Calm Calm - N/A   Partly Cloudy
6:51 AM 77.0 °F - 73.4 °F 89% 29.94 in 7.0 mi ENE 3.5 mph - N/A   Partly Cloudy
7:51 AM 80.6 °F 86.2 °F 75.2 °F 84% 29.97 in 7.0 mi ENE 4.6 mph - N/A   Partly Cloudy
8:53 AM 82.4 °F 89.5 °F 75.2 °F 79% 29.98 in 7.0 mi East 6.9 mph - N/A   Partly Cloudy
9:50 AM 84.2 °F 92.3 °F 75.2 °F 74% 29.98 in 7.0 mi ENE 9.2 mph - N/A   Partly Cloudy
10:50 AM 84.2 °F 92.3 °F 75.2 °F 74% 29.97 in 7.0 mi ENE 9.2 mph - N/A   Partly Cloudy
11:50 AM 84.2 °F 92.3 °F 75.2 °F 74% 29.96 in 7.0 mi East 8.1 mph - N/A   Scattered Clouds
12:50 PM 84.2 °F 92.3 °F 75.2 °F 74% 29.94 in 7.0 mi ENE 13.8 mph - N/A   Scattered Clouds
1:50 PM 84.2 °F 92.3 °F 75.2 °F 74% 29.93 in 7.0 mi ENE 15.0 mph - N/A   Scattered Clouds
2:50 PM 84.2 °F 92.3 °F 75.2 °F 74% 29.91 in 7.0 mi NE 15.0 mph - N/A   Scattered Clouds
3:53 PM 84.2 °F 92.3 °F 75.2 °F 74% 29.91 in 7.0 mi NE 12.7 mph - N/A   Scattered Clouds
4:51 PM 82.4 °F 89.5 °F 75.2 °F 79% 29.91 in 7.0 mi ENE 12.7 mph - N/A   Scattered Clouds
5:50 PM 80.6 °F 86.2 °F 75.2 °F 84% 29.92 in 7.0 mi ENE 10.4 mph - N/A   Overcast
6:50 PM 80.6 °F 86.2 °F 75.2 °F 84% 29.94 in 7.0 mi East 16.1 mph - N/A   Mostly Cloudy
7:52 PM 78.8 °F - 75.2 °F 89% 29.95 in 7.0 mi East 17.3 mph - N/A   Mostly Cloudy